Regional Weather Roundup
Issued by NWS State College, PA

Home | Current Version | Previous Version | Text Only | Print | Product List | Glossary Off
Versions: 1 2 3 4 5 6 7 8 9 10 11 12 13 14 15 16 17 18 19 20 21 22 23 24 25 26 27 28 29 30 31 32 33 34 35 36 37 38 39 40 41 42 43 44 45 46 47 48 49 50

000
ASUS41 KCTP 032003
RWRCTP

REGIONAL WEATHER ROUNDUP
NATIONAL WEATHER SERVICE STATE COLLEGE PA
300 PM EST SAT DEC 03 2016

Note: "fair" indicates few or no clouds below 12,000 feet with no
significant weather and/or obstructions to visibility.

* = STATION THAT DOES NOT REPORT PRECIPITATION /E.G. RAIN...SNOW...ETC/
    THUNDER OR FOG.

PAZ002>004-007>009-013>016-020>023-029>032-032100-
WESTERN PENNSYLVANIA

CITY           SKY/WX    TMP DP  RH WIND       PRES   REMARKS
ERIE           CLOUDY    42  34  73 W16G23    30.26R
MEADVILLE      CLOUDY    37  31  78 W12G18    30.23R
FRANKLIN*        N/A     37  28  70 W8        30.23S
NEW CASTLE     CLOUDY    38  31  76 W9        30.29R
BEAVER COUNTY  CLOUDY    37  30  75 W6        30.27R
BUTLER*        CLOUDY    36  28  75 W8        30.30R
PITTSBURGH INT CLOUDY    39  30  70 W7        30.27R
PITTSBURGH     CLOUDY    36  27  69 W10       30.27R
INDIANA*       CLOUDY    37  32  81 W10       30.26R
LATROBE        NOT AVBL
WASHINGTON CO* CLOUDY    36  27  69 SW6       30.29S
$$

PAZ004>006-010>012-017>019-024>028-033>037-041-042-045-046-049>053-032100-
CENTRAL PENNSYLVANIA

CITY           SKY/WX    TMP DP  RH WIND       PRES   REMARKS
BRADFORD       FLURRIES  34  32  92 W8G20     30.14R
DUBOIS         CLOUDY    36  31  82 W10       30.17R
CLEARFIELD     CLOUDY    39  32  76 W14       30.17R
JOHNSTOWN      CLOUDY    33  29  85 W10       30.19R
ALTOONA        CLOUDY    40  30  67 W13       30.20R
STATE COLLEGE  DRIZZLE   39  32  75 W14       30.16
WILLIAMSPORT   CLOUDY    45  30  55 NW13G21   30.12R
SELINSGROVE    CLOUDY    44  34  67 NW12      30.16R
FT INDIANTOWN  CLOUDY    45  31  57 W10G21    30.14R
CAPITAL CITY   CLOUDY    47  29  49 NW15      30.16R
HARRISBURG     PTSUNNY   47  31  53 NW20G25   30.15R
YORK           CLOUDY    47  31  53 NW13G21   30.16R
$$

PAZ038>040-043-044-047-048-054-055-060>062-067>071-032100-
EASTERN PENNSYLVANIA

CITY           SKY/WX    TMP DP  RH WIND       PRES   REMARKS
SCRANTON       CLOUDY    41  28  60 NW12G23   30.07R
MOUNT POCONO   CLOUDY    36  25  64 NW17G29   30.01R
ALLENTOWN      CLOUDY    47  27  45 NW15G22   30.08R
QUAKERTOWN*    CLOUDY    46  28  49 NW9       30.09R
READING        PTSUNNY   47  31  53 NW14      30.12R
LANCASTER      CLOUDY    47  34  60 NW13      30.13R
COATESVILLE    CLOUDY    45  32  61 NW14G21   30.12R
POTTSTOWN      CLOUDY    47  30  51 W10G20    30.11R
BLUE BELL      CLOUDY    46  30  53 NW10G20   30.09R
DOYLESTOWN     CLOUDY    49  29  46 NW8       30.07R
WILLOW GROVE   NOT AVBL
NORTH PHILA    PTSUNNY   51  29  42 NW18G24   30.10R
PHILADELPHIA   PTSUNNY   51  29  42 NW18G25   30.11R
$$




USA.gov is the U.S. government's official web portal to all federal, state and local government web resources and services.